Location: Waldport
(44.4270°N, 124.0680°W)
Time: 23:49:23
(UTC-07:00)

Daily predictions for brighter satellites

Satellite Brightness Start Highest point End
(mag) Time Altitude Azimuth Time Altitude Azimuth Time Altitude Azimuth
Cosmos 1812 Rocket 3.8 21:21:03 10° N 21:25:22 54° ENE 21:29:42 10° SSE
Tsikada Rocket 4.1 21:27:01 10° S 21:33:21 68° E 21:39:41 10° NNE
deb Chang Zheng 4 3.6 21:31:54 10° NNE 21:36:20 86° ESE 21:40:41 10° SSW
CZ-2C R/B 2.3 21:36:21 10° SSW 21:38:25 29° W 21:40:29 10° NW
BREEZE-M DEB (TANK) 3.8 21:37:22 10° WNW 21:39:26 20° SW 21:41:07 10° S
H-2A R/B 2.4 21:35:29 10° S 21:39:45 71° WSW 21:44:09 10° NNW
Cosmos 1666 3.9 21:36:56 10° NNW 21:40:39 43° W 21:44:21 10° SSW
ARGOS 4.2 21:37:25 10° SE 21:42:09 32° ENE 21:46:54 10° N
Cosmos 2228 4.3 21:41:22 10° NNW 21:45:33 42° W 21:49:41 10° SSW
Cosmos 1626 Rocket 3.9 21:43:23 10° SSW 21:47:48 71° W 21:52:13 10° N
Cosmos 1992 Rocket 4.0 21:45:12 10° NNW 21:50:27 77° ENE 21:55:34 10° SSE
Cosmos 2369 Rocket 2.4 21:44:56 10° NNW 21:50:35 63° ENE 21:55:44 12° SE
Lacrosse 4 Rocket 2.2 21:47:27 10° S 21:50:57 29° ESE 21:54:29 10° NE
GRACE-1 4.2 21:48:25 10° N 21:51:17 71° W 21:54:07 10° S
SL-8 R/B 4.5 21:46:50 10° WNW 21:51:35 53° N 21:56:20 10° E
GRACE-2 4.2 21:48:52 10° N 21:51:44 71° W 21:54:34 10° S
MetOp-B 4.3 21:47:53 10° SSE 21:53:09 64° ENE 21:58:28 10° N
USA 81 4.3 21:48:17 10° N 21:53:28 52° E 21:58:27 11° SSE
USA 245 4.5 21:51:09 11° SE 21:56:33 49° ENE 22:01:13 10° N
UNK 4.4 21:51:49 10° NNE 21:57:12 57° ESE 22:02:51 10° S
Meteor 2-12 Rocket 4.5 21:54:50 10° N 22:00:58 90° W 22:07:02 10° S
SeaSat 1 2.5 21:58:17 12° SSE 22:02:48 83° ENE 22:07:46 10° NNW
Cosmos 1634 Rocket 4.0 21:58:57 10° N 22:05:07 67° E 22:10:54 12° SSE
YAOGAN 6 2.8 22:03:34 15° SSE 22:06:32 57° ENE 22:10:13 10° N
SL-08 RB Rocket 4.5 22:03:34 15° SE 22:06:56 38° ENE 22:11:07 10° N
Cosmos 1953 Rocket 4.0 22:03:42 11° SSE 22:07:38 45° E 22:11:53 10° NNE
Cosmos-2242 4.4 22:08:58 10° NNE 22:12:40 26° ENE 22:15:08 16° ESE
ISS -3.0 22:09:52 10° WSW 22:13:07 67° NNW 22:16:22 10° NE
Cosmos 1515 3.8 22:09:55 10° SSW 22:13:46 77° W 22:17:39 10° N
CZ-4B R/B 3.5 22:09:24 10° NNE 22:14:29 66° ESE 22:19:40 10° S
Cosmos 1190 Rocket 4.0 22:10:57 10° S 22:16:12 67° ESE 22:21:29 10° NNE
CZ-4C R/B 4.1 22:17:02 19° SE 22:19:38 41° ENE 22:23:25 10° N
H-2A R/B 3.0 22:16:38 16° ESE 22:19:54 32° ENE 22:24:22 10° N
Cosmos 2263 4.2 22:16:03 10° NNW 22:21:42 80° ENE 22:25:53 19° SSE
Cosmos 2279 Rocket 4.2 22:19:46 10° N 22:25:56 57° ENE 22:30:28 19° SSE
PSLV R/B 3.6 22:22:50 10° WSW 22:26:16 49° S 22:28:07 24° ESE
Cosmos 2346 Rocket 4.4 22:20:44 10° S 22:26:55 87° E 22:33:05 10° N
Atlas Centaur 2 3.8 22:21:19 10° SW 22:27:31 29° S 22:31:50 18° SE
SPOT 1/Viking Rocket 3.5 22:24:35 16° SSE 22:28:47 87° WSW 22:33:58 10° NNW
COSMOS 2406 4.2 22:27:47 20° SE 22:30:15 26° ESE 22:34:57 10° NE
Cosmos 1066 Rocket 4.3 22:27:23 10° SSW 22:33:06 84° W 22:38:58 10° N
Cosmos 676 Rocket 4.1 22:28:13 11° S 22:33:18 57° ESE 22:38:32 10° NNE
Cosmos 1953 3.3 22:30:16 10° N 22:33:52 32° ENE 22:35:29 23° ESE
CZ-4 R/B 3.9 22:30:15 10° NNE 22:35:15 71° ESE 22:39:41 13° S
Lacrosse 5 rocket 4.3 22:32:49 10° NW 22:35:17 16° N 22:37:50 10° NNE
Landsat 7 4.1 22:32:57 22° SE 22:35:49 55° ENE 22:40:29 10° N
Meteor 1-22 Rocket 4.3 22:31:44 10° NNW 22:37:22 82° W 22:41:55 17° S
Cosmos 1758 Rocket 3.5 22:37:55 16° S 22:41:23 85° E 22:45:45 10° N
ATLAS 3B R/B 2.9 22:35:09 10° SSW 22:42:52 87° SE 22:50:25 10° NE
CARTOSAT-1 4.0 22:42:24 26° SE 22:44:29 47° ENE 22:48:39 10° N
SPOT 5 4.3 22:42:00 10° SSW 22:45:47 28° W 22:49:33 10° NW
Cosmos 1943 Rocket 2.2 22:41:45 10° NNW 22:47:19 71° ENE 22:50:34 26° SE
Cosmos 1346 Rocket 3.2 22:45:27 12° SSW 22:49:01 60° WNW 22:52:55 10° N
Terra 2.1 22:49:14 27° SE 22:51:38 55° ENE 22:56:17 10° N
Cosmos 1943 3.8 22:47:19 10° SW 22:52:53 57° WNW 22:58:31 10° NNE
SL-27 R/B 2.5 22:53:31 43° SE 22:54:06 48° ESE 22:57:21 10° NNE
DELTA 2 DEB (DPAF) 4.2 22:54:14 26° S 22:56:43 78° WSW 23:01:14 10° NNW
Cosmos 1842 3.2 22:55:37 31° S 22:57:23 75° E 23:01:19 10° NNE
Cosmos 1656 Rocket 4.4 22:52:30 10° NNW 22:57:57 44° ENE 23:01:04 23° ESE
USA 234 3.3 22:53:51 24° SE 22:58:04 71° SW 23:04:39 10° NW
Lacrosse 5 4.3 22:55:50 10° NW 22:59:36 20° N 23:03:22 10° NE
Cosmos 407 Rocket 3.9 22:56:44 10° SSW 23:01:57 63° WNW 23:07:08 10° NNE
Cosmos 1842 Rocket 3.9 23:06:17 10° N 23:10:35 52° ENE 23:11:57 37° SE
IGS 5A 3.4 23:18:28 42° S 23:19:49 86° WSW 23:24:01 10° NNW
Cosmos 1758 3.4 23:17:08 10° NNW 23:21:16 75° W 23:22:35 42° S
ARGOS 4.2 23:18:39 18° SSW 23:22:16 38° W 23:27:21 10° NNW
Cosmos 1954 Rocket 4.2 23:17:55 14° SSW 23:22:29 72° WNW 23:27:47 10° NNE
USA 238 DEB 3.7 23:18:31 10° SSW 23:25:34 75° ESE 23:32:38 10° NE
USA 238 3.7 23:18:37 10° SSW 23:25:40 74° ESE 23:32:44 10° NE
Cosmos 2208 Rocket 3.9 23:21:58 10° NNW 23:27:11 90° SW 23:29:08 39° SSE
Cosmos 2084 3.6 23:23:50 10° NW 23:27:55 57° SW 23:28:52 45° S
Lacrosse 4 Rocket 3.3 23:26:04 10° WSW 23:29:37 29° NW 23:33:15 10° N
Cosmos 2369 Rocket 4.1 23:30:04 10° NW 23:34:02 20° W 23:37:33 12° SW
SL-8 R/B 3.6 23:29:33 10° WNW 23:34:26 86° SSW 23:36:12 39° ESE
Cosmos 1092 Rocket 4.0 23:31:43 33° SSE 23:34:37 68° E 23:40:52 10° NNE
Meteor 2-5 Rocket 4.0 23:36:45 37° SE 23:38:40 52° E 23:44:15 10° NNE
Nadezhda 4 Rocket 4.1 23:40:24 27° SSW 23:44:01 78° W 23:50:24 10° N
Cosmos 1741 Rocket 3.9 23:41:50 34° SSW 23:44:14 88° ESE 23:49:36 10° NNE
Cosmos 1340 2.8 23:44:18 57° E 23:44:18 57° E 23:48:01 10° NNE
Cosmos 1470 2.6 23:43:10 10° N 23:47:05 76° E 23:47:24 70° SE
Cosmos 2221 3.1 23:43:28 10° N 23:47:36 43° ENE 23:48:11 40° E
Cosmos 1805 4.2 23:45:37 10° NNW 23:49:18 39° W 23:50:13 33° SW
ISS -0.9 23:47:13 10° WNW 23:49:58 24° N 23:52:43 10° NE
Cosmos 1544 3.2 23:50:59 10° NNW 23:54:43 63° W 23:55:00 60° WSW
